Regional Weather Roundup
Issued by NWS

Home | Current Version | Previous Version | Graphics & Text | Print | Product List | Glossary On
Versions: 1 2 3 4 5 6 7 8 9 10 11 12 13 14 15 16 17 18 19 20 21 22 23 24 25 26 27 28 29 30 31 32 33 34 35 36 37 38 39 40 41 42 43 44 45 46 47 48 49 50
000
ASUS43 KLOT 011000
RWRIL

ILLINOIS REGIONAL WEATHER ROUNDUP
NATIONAL WEATHER SERVICE CHICAGO/ROMEOVILLE IL
500 AM CDT MON SEP 01 2014

NOTE: "FAIR" INDICATES FEW OR NO CLOUDS BELOW 12,000 FEET WITH NO
SIGNIFICANT WEATHER AND/OR OBSTRUCTIONS TO VISIBILITY.

* THESE STATIONS ARE NOT UNDER NWS QUALITY CONTROL. THEY ALSO MAY NOT
  REPORT WEATHER SUCH AS PRECIPITATION OR FOG.

ILZ001-002-007-009-015-016-024-011100-
NORTHWEST ILLINOIS

CITY           SKY/WX    TMP DP  RH WIND       PRES   REMARKS
MOLINE         MOCLDY    65  63  93 SE7       29.76F
STERLING*      CLOUDY    66  63  88 E5        29.77F
$$

ILZ003-004-008-010-011-017-018-011100-
NORTH CENTRAL ILLINOIS

CITY           SKY/WX    TMP DP  RH WIND       PRES   REMARKS
ROCKFORD       CLOUDY    72  69  90 SW6       29.80F
$$

ILZ005-006-012>014-019>023-011100-
NORTHEAST ILLINOIS

CITY           SKY/WX    TMP DP  RH WIND       PRES   REMARKS
CHICAGO-OHARE  MOCLDY    72  67  84 S10       29.80F
CHICAGO-MIDWAY MOCLDY    74  71  91 S10       29.81F
AURORA         MOCLDY    72  69  90 S9        29.81S
WAUKEGAN       CLEAR     72  69  90 S9        29.78F
DUPAGE AIRPORT MOCLDY    72  70  93 S10       29.79F
WHEELING       PTCLDY    74  70  87 S9        29.81F
NORTHERLY ISL    N/A     73  68  84 S10         N/A
$$

LMZ740>746-011100-
SOUTHERN LAKE MICHIGAN

STATION/POSITION SKY/WX   TEMP    WIND        PRES    VSBY  WAVE
                          AIR SEA DIR/SP/G                  HT/PER
                          (F)     (DEG/KT/KT) (MB)    (MI)  (FT/S)
SOUTHERN BUOY              72 70  190/ 17/ 19 1009.5F         2/ 4
WAUKEGAN HARBOR            71     190/  9/ 12   N/A
HARRISON CRIB              73     200/ 19/ 22   N/A
BURNHAM HARBOR             73     180/  8/ 13   N/A
CALUMET HARBOR             73     160/  8/ 11 1008.7F
MICHIGAN CITY              72     160/ 12/ 17   N/A
MICHIGAN CITY 6N           72 72  170/ 12/ 16   N/A           1/ 2
ST. JOSEPH                 72 72  150/ 10/ 14   N/A           1/ 2
$$

ILZ025>027-034>036-040-047-049-050-058-095>099-011100-
WEST-CENTRAL ILLINOIS

CITY           SKY/WX    TMP DP  RH WIND       PRES   REMARKS
QUINCY         CLOUDY    72  66  81 W7        29.82R
MACOMB*        MOCLDY    67  65  95 E5        29.82F
$$

ILZ028>032-037-038-041>044-048-051>054-059>061-011100-
CENTRAL ILLINOIS

CITY           SKY/WX    TMP DP  RH WIND       PRES   REMARKS
DECATUR        PTCLDY    74  71  91 S14       29.86F
PEORIA         CLOUDY    73  66  78 CALM      29.80F
SPRINGFIELD    PTCLDY    75  71  87 S10       29.83F
TAYLORVILLE    NOT AVBL
$$

ILZ033-039-045-046-055>057-062-063-011100-
EAST-CENTRAL ILLINOIS

CITY           SKY/WX    TMP DP  RH WIND       PRES   REMARKS
CHAMPAIGN      PTCLDY    72  71  97 S10       29.87F
MATTOON        MOCLDY    72  71  97 S8        29.88F
$$

ILZ079-100>102-011100-
SOUTHWEST ILLINOIS

CITY           SKY/WX    TMP DP  RH WIND       PRES   REMARKS
BELLEVILLE     CLEAR     73  73 100 VRB2      29.87F
CAHOKIA*       MOCLDY    76  72  87 S6        29.87R
$$

ILZ064>066-069>071-074>076-080>082-084>086-088>090-092>094-011100-
SOUTH-CENTRAL ILLINOIS

CITY           SKY/WX    TMP DP  RH WIND       PRES   REMARKS
CARBONDALE     CLOUDY    76  71  85 SW15      29.94R
MT. VERNON     CLOUDY    73  70  88 S10       29.93S
$$

ILZ067-068-072-073-078-083-087-091-011100-
SOUTHEAST ILLINOIS

CITY           SKY/WX    TMP DP  RH WIND       PRES   REMARKS
LAWRENCEVILLE  PTCLDY    73  72  96 S7        29.93F
$$

ABBREVIATIONS USED IN REMARKS
   TC - TEMPERATURE IN CELSIUS
  WCI - WIND CHILL INDEX
   HX - HEAT INDEX
  VSB - VISIBILITY
$$



USA.gov is the U.S. government's official web portal to all federal, state and local government web resources and services.